Location: Moscow Pond
(43.6842°N, 73.2366°W)
Time: 05:40:51
(UTC+00:00)

SKYMED 2 - Pass Details

Date: 08 November 2025
Orbit: 621 x 623 km, 97.9° (Epoch: 10 December)

Event Time Altitude Azimuth Distance (km) Brightness Sun altitude
Rises 09:43:19 0° 155° (SSE) 2,892 7.4 -21.0°
Reaches altitude 10° 09:45:31 10° 151° (SSE) 1,990 6.6 -20.6°
Maximum altitude 09:49:46 57° 73° (ENE) 739 4.2 -19.8°
Drops below altitude 10° 09:54:02 10° 355° (N) 2,005 6.1 -19.1°
Sets 09:56:16 0° 352° (N) 2,916 6.9 -18.7°
